Latest Weather Observations for Lameroo AWS

IDS60801

Issued at 4:05 pm CST Wednesday 1 October 2014 (issued every 30 minutes, with the page automatically refreshed every 10 minutes)

About weather observations | Map of weather stations | Latest weather observations for SA | Other Formats
Station Details ID: 025562 Name: AUSTIN PLAINS Lat: -35.38 Lon: 140.54 Height: 110.08 m
Data from the previous 72 hours. | See also: Recent months at Lameroo AWS
Date/Time
CST
Temp
°C
App
Temp
°C
Dew
Point
Rel
Hum
%
Delta-T
°C
Wind Press
QNH
hPa
Press
MSL
hPa
Rain
since 9 am
mm
Dir
 
Spd
km/h
Gust
km/h
Spd
kts
Gust
kts
01/04:00pm 17.6 12.2 2.4 36 6.9 SW 20 32 11 17 1025.7 1025.6 0.0
01/03:30pm 18.1 12.8 2.8 36 7.0 SSW 20 30 11 16 1025.8 1025.7 0.0
01/03:00pm 18.4 14.1 3.1 36 7.1 S 15 28 8 15 1025.8 1025.7 0.0
01/02:30pm 17.8 12.2 3.3 38 6.7 SW 22 35 12 19 1026.0 1025.9 0.0
01/02:00pm 17.9 13.2 3.4 38 6.8 SW 17 32 9 17 1026.0 1025.9 0.0
01/01:30pm 17.9 13.7 3.8 39 6.6 S 15 20 8 11 1026.3 1026.2 0.0
01/01:00pm 16.5 11.2 3.2 41 6.1 SW 20 33 11 18 1026.6 1026.5 0.0
01/12:30pm 16.3 11.4 2.3 39 6.3 SSW 17 26 9 14 1026.8 1026.7 0.0
01/12:00pm 16.8 11.4 2.4 38 6.5 SSW 20 30 11 16 1027.1 1027.0 0.0
01/11:30am 16.2 11.3 1.9 38 6.3 SSW 17 22 9 12 1027.2 1027.1 0.0
01/11:00am 15.5 11.0 2.3 41 5.9 SW 15 26 8 14 1027.5 1027.4 0.0
01/10:30am 15.6 9.5 2.7 42 5.8 S 24 35 13 19 1027.5 1027.4 0.0
01/10:00am 15.2 9.8 2.4 42 5.7 S 20 30 11 16 1027.6 1027.5 0.0
01/09:30am 14.1 8.9 2.4 45 5.2 SSW 19 28 10 15 1027.6 1027.5 0.0
01/09:00am 13.4 9.0 2.6 48 4.7 S 15 22 8 12 1027.4 1027.4 0.0
01/08:30am 12.6 8.4 3.8 55 3.9 S 15 22 8 12 1027.2 1027.2 0.0
01/08:00am 11.4 8.3 5.7 68 2.7 S 11 19 6 10 1026.8 1026.8 0.0
01/07:30am 9.1 7.0 6.5 84 1.2 SW 7 9 4 5 1026.4 1026.4 0.0
01/07:00am 7.0 4.9 5.9 93 0.5 WSW 6 7 3 4 1026.0 1026.0 0.0
01/06:30am 4.0 0.8 3.1 94 0.4 WSW 9 11 5 6 1025.7 1025.7 0.0
01/06:00am 3.4 0.5 2.7 95 0.3 WSW 7 9 4 5 1025.2 1025.2 0.0
01/05:30am 3.3 0.3 2.3 93 0.4 WSW 7 7 4 4 1024.6 1024.6 0.0
01/05:00am 3.9 0.6 2.7 92 0.5 W 9 9 5 5 1024.0 1024.0 0.0
01/04:30am 4.2 1.0 3.0 92 0.5 WSW 9 11 5 6 1023.5 1023.5 0.0
01/04:00am 4.7 1.3 3.8 94 0.4 WSW 11 13 6 7 1023.1 1023.2 0.0
01/03:30am 4.3 0.8 3.3 93 0.4 W 11 11 6 6 1022.8 1022.9 0.0
01/03:00am 5.4 2.8 4.4 93 0.4 W 7 9 4 5 1022.6 1022.7 0.0
01/02:30am 5.7 3.4 5.7 100 0.0 W 7 7 4 4 1022.5 1022.6 0.0
01/02:00am 4.0 0.8 3.1 94 0.4 W 9 11 5 6 1022.2 1022.3 0.0
01/01:30am 5.5 2.2 4.3 92 0.5 WSW 11 13 6 7 1022.1 1022.2 0.0
01/01:00am 5.2 1.5 4.2 93 0.4 SW 13 15 7 8 1022.0 1022.1 0.0
01/12:30am 6.0 2.7 4.6 91 0.6 WSW 11 13 6 7 1021.9 1022.0 0.0
01/12:00am 6.9 3.8 5.5 91 0.6 SW 11 13 6 7 1021.6 1021.7 0.0
 
Date/Time
CST
Temp
°C
App
Temp
°C
Dew
Point
Rel
Hum
%
Delta-T
°C
Wind Press
QNH
hPa
Press
MSL
hPa
Rain
since 9 am
mm
Dir
 
Spd
km/h
Gust
km/h
Spd
kts
Gust
kts
30/11:30pm 7.5 4.1 6.0 90 0.7 W 13 13 7 7 1021.3 1021.4 0.0
30/11:00pm 8.3 5.1 6.8 90 0.7 WSW 13 15 7 8 1021.0 1021.1 0.0
30/10:30pm 9.5 6.8 7.4 87 1.0 WSW 11 17 6 9 1020.9 1021.0 0.0
30/10:00pm 9.9 6.5 7.7 86 1.1 WSW 15 17 8 9 1020.7 1020.8 0.0
30/09:30pm 9.6 6.2 7.5 87 1.0 SW 15 20 8 11 1020.2 1020.3 0.0
30/09:00pm 9.7 5.3 7.3 85 1.1 SSW 20 32 11 17 1020.0 1020.0 0.0
30/08:30pm 11.1 5.8 7.0 76 2.0 WSW 24 39 13 21 1019.6 1019.6 0.0
30/08:00pm 11.5 7.7 6.0 69 2.6 WSW 15 20 8 11 1018.9 1018.9 0.0
30/07:30pm 12.5 7.0 5.7 63 3.2 SW 24 33 13 18 1018.3 1018.3 0.0
30/07:00pm 12.6 6.5 4.8 59 3.6 SW 26 35 14 19 1017.8 1017.8 0.0
30/06:30pm 12.6 7.1 4.1 56 3.9 SW 22 33 12 18 1017.2 1017.2 0.0
30/06:00pm 13.4 5.9 3.5 51 4.5 WSW 32 46 17 25 1016.8 1016.8 0.0
30/05:30pm 14.6 6.5 3.1 46 5.2 WSW 35 50 19 27 1016.1 1016.1 0.0
30/05:00pm 15.5 6.9 4.8 49 5.1 WSW 39 52 21 28 1015.7 1015.7 0.0
30/04:30pm 15.2 7.0 6.7 57 4.2 WSW 39 52 21 28 1015.2 1015.2 0.0
30/04:10pm 15.3 8.8 8.1 62 3.6 WSW 32 50 17 27 1015.0 1015.0 0.0
30/04:00pm 15.2 8.6 8.7 65 3.3 WSW 33 43 18 23 1014.6 1014.6 0.0
30/03:30pm 14.0 7.3 9.6 75 2.3 WSW 35 44 19 24 1014.4 1014.4 0.0
30/03:00pm 14.3 5.9 8.9 70 2.8 WSW 43 63 23 34 1014.4 1014.4 0.0
30/02:30pm 14.2 4.7 11.0 81 1.7 SW 52 72 28 39 1014.1 1014.1 0.0
30/02:21pm 16.4 7.3 9.8 65 3.5 WSW 48 69 26 37 1013.3 1013.4 0.0
30/02:00pm 18.8 9.8 8.7 52 5.3 WSW 46 59 25 32 1012.7 1012.8 0.0
30/01:30pm 19.9 7.8 6.3 41 6.8 W 59 82 32 44 1012.0 1012.0 0.0
30/01:00pm 21.9 10.0 5.3 34 8.3 W 57 82 31 44 1011.9 1011.9 0.0
30/12:30pm 22.7 12.8 6.5 35 8.3 W 48 70 26 38 1011.7 1011.7 0.0
30/12:11pm 22.6 12.6 6.0 34 8.4 W 48 67 26 36 1011.7 1011.7 0.0
30/12:00pm 21.4 11.4 6.1 37 7.7 W 48 67 26 36 1011.7 1011.7 0.0
30/11:52am 23.1 13.2 6.4 34 8.6 W 48 67 26 36 1011.6 1011.6 0.0
30/11:30am 22.5 12.5 6.3 35 8.3 W 48 63 26 34 1011.6 1011.6 0.0
30/11:00am 22.4 11.1 5.4 33 8.5 W 54 69 29 37 1011.6 1011.6 0.0
30/10:30am 22.5 13.1 4.5 31 8.9 W 43 61 23 33 1011.4 1011.4 0.0
30/10:07am 21.8 11.4 4.4 32 8.5 WNW 48 67 26 36 1011.4 1011.4 0.0
30/10:00am 21.6 10.8 4.2 32 8.5 W 50 67 27 36 1011.4 1011.4 0.0
30/09:30am 21.3 11.6 4.0 32 8.4 WNW 44 63 24 34 1011.4 1011.4 0.0
30/09:25am 21.4 12.8 4.9 34 8.2 WNW 39 57 21 31 1011.6 1011.6 0.0
30/09:00am 20.7 12.7 5.5 37 7.6 NW 37 48 20 26 1011.4 1011.4 0.0
30/08:30am 18.9 11.9 7.0 46 6.0 NW 33 46 18 25 1011.7 1011.7 0.0
30/08:00am 16.2 10.6 8.9 62 3.8 NNW 28 37 15 20 1011.7 1011.7 0.0
30/07:30am 13.6 8.6 9.5 76 2.1 NNW 26 33 14 18 1011.9 1011.9 0.0
30/07:00am 11.5 7.6 9.6 88 1.0 NNW 20 26 11 14 1012.0 1012.0 0.0
30/06:30am 8.7 5.7 7.6 93 0.5 N 13 17 7 9 1011.9 1011.9 0.0
30/06:00am 7.0 3.2 5.8 92 0.5 N 15 17 8 9 1011.8 1011.8 0.0
30/05:30am 6.2 2.2 5.0 92 0.5 N 15 15 8 8 1011.6 1011.6 0.0
30/05:00am 6.8 3.2 6.8 100 0.0 N 15 17 8 9 1011.6 1011.6 0.0
30/04:30am 6.1 2.4 6.1 100 0.0 N 15 17 8 9 1011.8 1011.8 0.0
30/04:00am 6.7 3.5 6.7 100 0.0 N 13 15 7 8 1011.4 1011.4 0.0
30/03:30am 6.5 3.6 6.5 100 0.0 N 11 13 6 7 1011.5 1011.5 0.0
30/03:00am 6.6 4.0 6.0 96 0.3 N 9 9 5 5 1011.7 1011.7 0.0
30/02:30am 6.1 3.6 4.9 92 0.5 N 7 9 4 5 1012.2 1012.2 0.0
30/02:00am 6.9 4.2 5.7 92 0.5 NNW 9 9 5 5 1012.7 1012.8 0.0
30/01:30am 7.2 4.9 5.8 91 0.6 NW 7 9 4 5 1013.1 1013.2 0.0
30/01:00am 7.4 4.8 5.9 90 0.7 WNW 9 11 5 6 1013.5 1013.6 0.0
30/12:30am 8.7 5.8 6.7 87 0.9 W 11 13 6 7 1013.9 1013.9 0.0
30/12:00am 9.4 6.3 7.2 86 1.0 W 13 13 7 7 1014.0 1014.0 0.0
 
Date/Time
CST
Temp
°C
App
Temp
°C
Dew
Point
Rel
Hum
%
Delta-T
°C
Wind Press
QNH
hPa
Press
MSL
hPa
Rain
since 9 am
mm
Dir
 
Spd
km/h
Gust
km/h
Spd
kts
Gust
kts
29/11:30pm 10.6 7.3 8.2 85 1.2 W 15 19 8 10 1014.0 1014.0 0.0
29/11:00pm 8.8 5.2 6.8 87 0.9 W 15 15 8 8 1014.3 1014.3 0.0
29/10:30pm 9.4 6.6 6.8 84 1.2 W 11 13 6 7 1014.0 1014.0 0.0
29/10:00pm 9.6 7.5 6.7 82 1.4 NW 7 9 4 5 1013.9 1013.9 0.0
29/09:30pm 11.7 10.5 8.2 79 1.7 W 4 7 2 4 1013.8 1013.8 0.0
29/09:00pm 13.0 11.9 8.5 74 2.3 SSW 4 4 2 2 1013.5 1013.6 0.0
29/08:30pm 12.5 10.8 8.2 75 2.1 SW 7 9 4 5 1013.6 1013.7 0.0
29/08:00pm 13.5 11.0 8.1 70 2.7 SW 11 15 6 8 1013.8 1013.8 0.0
29/07:30pm 15.0 11.4 8.5 65 3.3 WSW 17 22 9 12 1013.3 1013.4 0.0
29/07:00pm 16.1 12.7 7.8 58 4.2 WSW 15 20 8 11 1012.8 1012.9 0.0
29/06:30pm 17.4 13.8 6.9 50 5.3 WNW 15 17 8 9 1012.4 1012.4 0.0
29/06:00pm 19.6 15.7 7.0 44 6.4 WNW 17 22 9 12 1012.3 1012.3 0.0
29/05:30pm 21.4 16.8 6.5 38 7.6 WNW 20 30 11 16 1012.1 1012.1 0.0
29/05:00pm 22.3 17.3 6.5 36 8.1 NW 22 28 12 15 1012.0 1012.0 0.0
29/04:30pm 22.4 17.9 6.2 35 8.3 NNW 19 30 10 16 1011.9 1011.9 0.0
29/04:00pm 22.7 18.1 6.5 35 8.3 NW 20 32 11 17 1011.9 1011.9 0.0
29/03:30pm 22.9 17.4 5.8 33 8.7 WNW 24 33 13 18 1012.1 1012.1 0.0
29/03:00pm 22.4 17.3 6.2 35 8.3 NNW 22 33 12 18 1012.2 1012.2 0.0
29/02:30pm 22.6 18.0 6.4 35 8.3 NW 20 32 11 17 1012.5 1012.5 0.0
29/02:00pm 21.9 16.6 7.0 38 7.7 NW 24 35 13 19 1013.0 1013.1 0.0
29/01:30pm 20.8 15.9 7.1 41 7.0 WNW 22 28 12 15 1013.4 1013.5 0.0
29/01:00pm 21.2 17.4 7.4 41 7.1 WNW 17 28 9 15 1013.9 1013.9 0.0
29/12:30pm 20.9 16.2 7.9 43 6.8 WNW 22 32 12 17 1014.4 1014.4 0.0
29/12:00pm 19.3 15.2 8.0 48 5.8 WNW 19 33 10 18 1014.9 1014.9 0.0
29/11:30am 19.7 15.1 8.1 47 6.0 WNW 22 30 12 16 1015.3 1015.3 0.0
29/11:00am 18.5 14.4 8.7 53 5.1 W 20 26 11 14 1015.6 1015.6 0.0
29/10:30am 18.2 13.8 9.0 55 4.8 WNW 22 30 12 16 1015.6 1015.6 0.0
29/10:00am 18.2 14.3 8.7 54 4.9 W 19 28 10 15 1015.6 1015.6 0.0
29/09:30am 18.0 13.8 8.3 53 5.0 W 20 30 11 16 1015.7 1015.7 0.0
29/09:00am 17.3 13.5 9.0 58 4.3 W 19 28 10 15 1015.7 1015.7 0.0
29/08:30am 15.9 12.4 10.2 69 3.0 W 19 28 10 15 1015.6 1015.6 0.0
29/08:00am 14.4 11.7 10.4 77 2.1 W 15 20 8 11 1015.3 1015.3 0.0
29/07:30am 12.3 10.2 9.7 84 1.3 NW 11 15 6 8 1015.2 1015.2 0.0
29/07:00am 10.3 8.0 8.9 91 0.7 WNW 11 15 6 8 1015.1 1015.1 0.0
29/06:30am 7.7 4.7 7.7 100 0.0 NW 13 15 7 8 1015.2 1015.2 0.0
29/06:00am 5.9 2.5 5.9 100 0.0 NNW 13 15 7 8 1014.8 1014.8 0.0
29/05:30am 6.3 3.0 6.3 100 0.0 NW 13 15 7 8 1014.7 1014.7 0.0
29/05:00am 6.2 3.2 6.2 100 0.0 NW 11 13 6 7 1014.2 1014.2 0.0
29/04:30am 5.6 2.5 5.6 100 0.0 NW 11 13 6 7 1014.0 1014.0 0.0
29/04:00am 6.8 4.4 6.8 100 0.0 NW 9 11 5 6 1013.5 1013.6 0.0
29/03:30am 7.5 4.4 7.2 98 0.1 WNW 13 15 7 8 1013.2 1013.3 0.0
29/03:00am 8.1 5.2 8.1 100 0.0 WNW 13 15 7 8 1013.1 1013.2 0.0
29/02:30am 8.0 4.8 6.8 92 0.6 WNW 13 13 7 7 1013.1 1013.2 0.0
29/02:00am 10.3 7.1 8.6 89 0.8 W 15 19 8 10 1013.0 1013.1 0.0
29/01:30am 11.2 7.8 9.1 87 1.1 W 17 22 9 12 1013.1 1013.2 0.0
29/01:00am 11.7 7.4 9.4 86 1.2 W 22 33 12 18 1013.1 1013.2 0.0
29/12:30am 11.1 7.1 9.0 87 1.0 W 20 28 11 15 1013.3 1013.4 0.0
29/12:00am 11.3 7.3 9.2 87 1.1 W 20 28 11 15 1013.3 1013.4 0.0
 
Date/Time
CST
Temp
°C
App
Temp
°C
Dew
Point
Rel
Hum
%
Delta-T
°C
Wind Press
QNH
hPa
Press
MSL
hPa
Rain
since 9 am
mm
Dir
 
Spd
km/h
Gust
km/h
Spd
kts
Gust
kts
28/11:30pm 11.5 7.2 9.2 86 1.2 WSW 22 28 12 15 1013.2 1013.3 0.0
28/11:00pm 10.5 7.8 9.1 91 0.7 W 13 19 7 10 1013.1 1013.2 0.0
28/10:30pm 10.0 7.2 8.6 91 0.7 W 13 19 7 10 1012.7 1012.8 0.0
28/10:00pm 11.1 8.0 9.0 87 1.0 WSW 15 19 8 10 1012.7 1012.8 0.0
28/09:30pm 11.6 8.2 9.2 85 1.2 WSW 17 22 9 12 1012.8 1012.9 0.0
28/09:00pm 11.8 9.0 8.6 81 1.6 WSW 13 17 7 9 1012.2 1012.2 0.0
28/08:30pm 12.3 9.6 8.8 79 1.8 SW 13 15 7 8 1011.7 1011.7 0.0
28/08:00pm 13.7 9.8 8.7 72 2.5 SW 19 24 10 13 1010.8 1010.8 0.0
28/07:30pm 14.8 9.5 8.5 66 3.2 SW 26 35 14 19 1010.3 1010.3 0.0
28/07:00pm 15.3 10.5 8.8 65 3.3 SW 24 33 13 18 1009.6 1009.6 0.0
28/06:30pm 16.1 11.2 8.3 60 4.0 SW 24 37 13 20 1008.8 1008.8 0.0
28/06:00pm 17.6 11.6 8.7 56 4.6 SW 30 41 16 22 1008.0 1008.0 0.0
28/05:30pm 20.4 14.4 8.7 47 6.2 SW 30 39 16 21 1007.2 1007.2 0.0
28/05:23pm 20.9 13.8 8.2 44 6.7 SW 35 48 19 26 1006.8 1006.8 0.0
28/05:03pm 25.9 17.2 6.0 28 10.3 WSW 41 52 22 28 1006.1 1006.1 0.0
28/05:00pm 28.0 18.3 0.7 17 13.1 W 41 59 22 32 1005.7 1005.7 0.0
28/04:56pm 28.2 18.9 0.9 17 13.1 W 39 59 21 32 1005.7 1005.7 0.0
28/04:30pm 30.1 20.8 0.6 15 14.4 WNW 39 56 21 30 1005.5 1005.5 0.0

Other Formats:

Comma delimited format used in spreadsheet applications
http://www.bom.gov.au/fwo/IDS60801/IDS60801.94690.axf

JavaScript Object Notation format (JSON) in row-major order
http://www.bom.gov.au/fwo/IDS60801/IDS60801.94690.json